This demonstration page uses our WeatherBlox Daily Observations layout. Learn more.

Left ArrowRight Arrow

Hourly Observations for June 25, 2018

Temp ( °F °C ) Dew Point ( °F °C ) Humidity (%) Winds ( mph kmh ) Pressure ( in mb ) Visibility ( mi km ) Precip ( " mm )
12:57 am 00:57 Clear 63 17.2 59 15 87 87 NE 9 15 29.87 1011 10 16 0.00 0.00
1:57 am 01:57 Clear 63 17.2 59 15 87 87 N 5 7 29.84 1010 10 16 0.00 0.00
2:57 am 02:57 Cloudy 64 17.8 60 15.6 87 87 NW 8 13 29.88 1012 10 16 0.00 0.00
3:15 am 03:15 Cloudy with Light Rain 64 18 61 16 88 88 WNW 6 9 29.88 1012 10 16 0.00 0.00
3:34 am 03:34 Cloudy 64 18 61 16 88 88 NW 5 7 29.88 1012 10 16 0.00 0.03
3:54 am 03:54 Cloudy 63 17 61 16 94 94 NNE 3 6 29.85 1011 10 16 0.00 0.03
3:57 am 03:57 Cloudy 63 17.2 61 16.1 93 93 Calm 29.86 1011 10 16 0.00 0.03
4:06 am 04:06 Mostly Cloudy 64 18 61 16 88 88 Calm 29.85 1011 10 16 0.00 0.00
4:16 am 04:16 Mostly Cloudy with Nearby Thunderstorms 64 18 61 16 88 88 Calm 29.85 1011 10 16 0.00 0.00
4:38 am 04:38 Cloudy with Light Rain 64 18 63 17 94 94 WNW 5 7 29.85 1011 10 16 0.00 0.03
4:57 am 04:57 Cloudy 64 17.8 62 16.7 93 93 WNW 5 7 29.85 1011 10 16 0.00 0.03
5:13 am 05:13 Cloudy 64 18 63 17 94 94 Calm 29.85 1011 10 16 0.00 0.00
5:57 am 05:57 Cloudy 64 17.8 62 16.7 93 93 Calm 29.85 1011 9 14 0.01 0.25
6:25 am 06:25 Cloudy with Mist and Fog 64 18 63 17 94 94 S 3 6 29.85 1011 2 3 0.00 0.00
6:39 am 06:39 Cloudy with Mist and Fog 63 17 63 17 100 100 S 6 9 29.85 1011 1 1 0.00 0.00
6:42 am 06:42 Cloudy with Fog 63 17 63 17 100 100 S 6 9 29.85 1011 1 1 0.19 4.83
6:53 am 06:53 Cloudy with Mist and Fog 63 17 63 17 100 100 S 6 9 29.85 1011 1 2 0.00 0.00
6:57 am 06:57 Cloudy with Mist and Fog 63 17.2 62 16.7 97 97 S 6 9 29.87 1012 2 2 0.26 6.60
7:12 am 07:12 Cloudy with Mist and Fog 63 17 63 17 100 100 WSW 6 9 29.88 1012 2 3 0.04 1.02
7:25 am 07:25 Cloudy with Mist and Fog 63 17 63 17 100 100 SW 5 7 29.88 1012 3 4 0.00 0.00
7:28 am 07:28 Cloudy with Mist and Fog 63 17 63 17 100 100 WSW 3 6 29.88 1012 3 5 0.08 2.03
7:38 am 07:38 Cloudy with Mist and Fog 63 17 63 17 100 100 Calm 29.88 1012 3 5 0.10 2.54
7:49 am 07:49 Cloudy with Mist and Fog 63 17 63 17 100 100 W 5 7 29.88 1012 2 3 0.00 0.00
7:57 am 07:57 Cloudy with Mist and Fog 63 17.2 62 16.7 97 97 WNW 5 7 29.88 1012 2 3 0.17 4.32
8:21 am 08:21 Cloudy with Rain 63 17 63 17 100 100 WNW 6 9 29.85 1011 3 4 0.00 0.00
8:24 am 08:24 Cloudy with Rain 63 17 63 17 100 100 WNW 5 7 29.85 1011 4 6 0.08 2.03
8:45 am 08:45 Cloudy 63 17 63 17 100 100 WNW 9 15 29.85 1011 7 11 0.00 0.00
8:57 am 08:57 Cloudy with Light Rain 63 17.2 63 17.2 100 100 WNW 12 19 29.87 1012 6 10 0.10 2.54
9:57 am 09:57 Cloudy with Light Rain 62 16.7 60 15.6 93 93 N 8 13 29.89 1012 10 16 0.04 1.02
10:23 am 10:23 Cloudy with Light Rain 63 17 61 16 94 94 N 8 13 29.85 1011 10 16 0.00 0.00
10:57 am 10:57 Cloudy 63 17.2 61 16.1 93 93 N 10 17 29.88 1012 10 16 0.02 0.51
11:20 am 11:20 Cloudy 64 18 61 16 88 88 NNE 14 22 29.85 1011 10 16 0.00 0.00
11:37 am 11:37 Cloudy 64 18 61 16 88 88 N 9 15 29.85 1011 10 16 0.00 0.00
11:57 am 11:57 Cloudy 66 18.9 60 15.6 81 81 N 8 13 29.87 1011 10 16 0.00 0.00
12:57 pm 12:57 Mostly Cloudy 70 21.1 60 15.6 71 71 WNW 7 11 29.85 1011 10 16 0.00 0.00
1:33 pm 13:33 Mostly Cloudy 72 22 61 16 69 69 WNW 12 19 29.80 1009 10 16 0.00 0.00
1:55 pm 13:55 Mostly Cloudy 72 22 59 15 65 65 WNW 10 17 29.80 1009 10 16 0.00 0.00
1:57 pm 13:57 Mostly Cloudy 71 21.7 59 15 66 66 WNW 13 20 29.84 1011 10 16 0.00 0.00
2:05 pm 14:05 Mostly Cloudy 72 22 59 15 65 65 WNW 12 19 29.80 1009 10 16 0.00 0.00
2:57 pm 14:57 Cloudy 70 21.1 61 16.1 73 73 S 8 13 29.83 1010 10 16 0.00 0.03
3:57 pm 15:57 Mostly Cloudy 73 22.8 58 14.4 59 59 W 10 17 29.82 1010 10 16 0.00 0.00
4:57 pm 16:57 Mostly Cloudy 74 23.3 58 14.4 57 57 W 14 22 29.82 1010 10 16 0.00 0.03
5:57 pm 17:57 Cloudy 71 21.7 60 15.6 68 68 WNW 16 26 29.81 1010 10 16 0.01 0.25
6:57 pm 18:57 Mostly Cloudy 71 21.7 59 15 66 66 W 13 20 29.81 1010 10 16 0.00 0.00
7:57 pm 19:57 Mostly Cloudy 68 20 60 15.6 76 76 W 9 15 29.81 1010 10 16 0.00 0.00
8:08 pm 20:08 Mostly Cloudy 68 20 61 16 78 78 W 10 17 29.80 1009 10 16 0.00 0.00
8:30 pm 20:30 Partly Cloudy 66 19 61 16 83 83 W 13 20 29.80 1009 10 16 0.00 0.00
8:57 pm 20:57 Sunny 65 18.3 61 16.1 87 87 W 8 13 29.83 1010 10 16 0.00 0.00
9:57 pm 21:57 Clear 64 17.8 61 16.1 90 90 W 3 6 29.84 1011 10 16 0.00 0.00
10:57 pm 22:57 Clear 63 17.2 61 16.1 93 93 NW 5 7 29.86 1011 10 16 0.00 0.00
11:57 pm 23:57 Clear 62 16.7 60 15.6 93 93 W 7 11 29.86 1011 10 16 0.00 0.00

Powered by AerisWeather